Time,TemperatureF,DewpointF,PressureIn,WindDirection,WindDirectionDegrees,WindSpeedMPH,WindSpeedGustMPH,Humidity,HourlyPrecipIn,Conditions,Clouds,dailyrainin,SoftwareType,DateUTC
2013-02-03 00:03:00,34.0,11.6,29.92,SW,225,0.0,0.0,39,0.00,CLR,,0.00,WeatherDisplay:10.37,2013-02-03 07:03:00,
2013-02-03 00:08:00,33.8,12.0,29.92,North,0,1.2,0.0,40,0.00,CLR,,0.00,WeatherDisplay:10.37,2013-02-03 07:08:00,
2013-02-03 00:13:00,33.6,11.8,29.92,East,90,0.9,0.9,40,0.00,CLR,,0.00,WeatherDisplay:10.37,2013-02-03 07:13:00,
2013-02-03 00:18:00,33.4,11.7,29.92,East,90,0.0,0.0,40,0.00,CLR,,0.00,WeatherDisplay:10.37,2013-02-03 07:18:00,
2013-02-03 00:23:00,33.3,12.1,29.92,NNE,22,0.0,0.5,41,0.00,CLR,,0.00,WeatherDisplay:10.37,2013-02-03 07:23:00,
2013-02-03 00:28:00,33.1,11.9,29.91,NNE,22,0.0,0.0,41,0.00,CLR,,0.00,WeatherDisplay:10.37,2013-02-03 07:28:00,
2013-02-03 00:33:00,32.9,12.3,29.91,East,90,0.0,0.0,42,0.00,CLR,,0.00,WeatherDisplay:10.37,2013-02-03 07:33:00,
2013-02-03 00:38:00,32.7,12.1,29.91,North,0,0.5,0.5,42,0.00,CLR,,0.00,WeatherDisplay:10.37,2013-02-03 07:38:00,
2013-02-03 00:43:00,32.5,12.0,29.91,NNE,22,0.2,0.2,42,0.00,CLR,,0.00,WeatherDisplay:10.37,2013-02-03 07:43:00,
2013-02-03 00:48:00,32.4,12.3,29.91,ENE,68,0.0,0.0,43,0.00,CLR,,0.00,WeatherDisplay:10.37,2013-02-03 07:48:00,
2013-02-03 00:53:00,32.2,12.2,29.91,NE,45,0.0,0.0,43,0.00,CLR,,0.00,WeatherDisplay:10.37,2013-02-03 07:53:00,
2013-02-03 00:58:00,32.0,12.0,29.91,NE,45,0.0,0.0,43,0.00,CLR,,0.00,WeatherDisplay:10.37,2013-02-03 07:58:00,
2013-02-03 01:03:00,31.8,12.4,29.91,NNE,22,0.0,0.0,44,0.00,CLR,,0.00,WeatherDisplay:10.37,2013-02-03 08:03:00,
2013-02-03 01:08:00,31.6,12.2,29.91,East,90,0.0,0.0,44,0.00,CLR,,0.00,WeatherDisplay:10.37,2013-02-03 08:08:00,
2013-02-03 01:13:00,31.3,11.9,29.91,ENE,68,0.0,0.0,44,0.00,CLR,,0.00,WeatherDisplay:10.37,2013-02-03 08:13:00,
2013-02-03 01:18:00,31.3,11.9,29.90,ENE,68,0.5,0.5,44,0.00,CLR,,0.00,WeatherDisplay:10.37,2013-02-03 08:18:00,
2013-02-03 01:23:00,30.9,11.5,29.90,ENE,68,0.0,0.0,44,0.00,CLR,,0.00,WeatherDisplay:10.37,2013-02-03 08:23:00,
2013-02-03 01:28:00,30.9,12.0,29.90,NNE,22,0.5,0.5,45,0.00,CLR,,0.00,WeatherDisplay:10.37,2013-02-03 08:28:00,
2013-02-03 01:33:00,30.9,12.0,29.90,NNE,22,0.7,0.7,45,0.00,CLR,,0.00,WeatherDisplay:10.37,2013-02-03 08:33:00,
2013-02-03 01:38:00,30.7,12.4,29.90,North,0,0.0,0.0,46,0.00,CLR,,0.00,WeatherDisplay:10.37,2013-02-03 08:38:00,
2013-02-03 01:43:00,30.7,12.4,29.89,NE,45,0.2,0.2,46,0.00,CLR,,0.00,WeatherDisplay:10.37,2013-02-03 08:43:00,
2013-02-03 01:48:00,30.7,12.9,29.90,NE,45,0.5,0.5,47,0.00,CLR,,0.00,WeatherDisplay:10.37,2013-02-03 08:48:00,
2013-02-03 01:53:00,30.9,13.5,29.89,NE,45,0.0,0.0,48,0.00,CLR,,0.00,WeatherDisplay:10.37,2013-02-03 08:53:00,
2013-02-03 01:58:00,30.9,13.5,29.89,NNE,22,0.0,0.0,48,0.00,CLR,,0.00,WeatherDisplay:10.37,2013-02-03 08:58:00,
2013-02-03 02:03:00,31.1,13.7,29.89,NE,45,0.0,0.0,48,0.00,CLR,,0.00,WeatherDisplay:10.37,2013-02-03 09:03:00,
2013-02-03 02:08:00,31.1,13.7,29.89,NE,45,0.0,0.0,48,0.00,CLR,,0.00,WeatherDisplay:10.37,2013-02-03 09:08:00,
2013-02-03 02:13:00,31.3,13.8,29.89,NNE,22,0.2,0.2,48,0.00,CLR,,0.00,WeatherDisplay:10.37,2013-02-03 09:13:00,
2013-02-03 02:18:00,31.3,13.8,29.88,NNE,22,0.2,0.2,48,0.00,CLR,,0.00,WeatherDisplay:10.37,2013-02-03 09:18:00,
2013-02-03 02:23:00,31.5,13.0,29.88,ENE,68,0.0,0.0,46,0.00,CLR,,0.00,WeatherDisplay:10.37,2013-02-03 09:23:00,
2013-02-03 02:28:00,31.5,12.5,29.88,East,90,0.0,0.0,45,0.00,CLR,,0.00,WeatherDisplay:10.37,2013-02-03 09:28:00,
2013-02-03 02:33:00,31.3,11.9,29.88,SSE,158,0.0,0.0,44,0.00,CLR,,0.00,WeatherDisplay:10.37,2013-02-03 09:33:00,
2013-02-03 02:38:00,31.3,11.9,29.88,SSE,158,0.0,0.0,44,0.00,CLR,,0.00,WeatherDisplay:10.37,2013-02-03 09:38:00,
2013-02-03 02:43:00,31.3,11.3,29.88,SSE,158,0.0,0.0,43,0.00,CLR,,0.00,WeatherDisplay:10.37,2013-02-03 09:43:00,
2013-02-03 02:48:00,31.1,11.2,29.88,SSE,158,0.0,0.0,43,0.00,CLR,,0.00,WeatherDisplay:10.37,2013-02-03 09:48:00,
2013-02-03 02:53:00,30.9,11.0,29.88,SSE,158,0.0,0.0,43,0.00,CLR,,0.00,WeatherDisplay:10.37,2013-02-03 09:53:00,
2013-02-03 02:58:00,30.7,10.8,29.88,SSW,202,0.0,0.0,43,0.00,CLR,,0.00,WeatherDisplay:10.37,2013-02-03 09:58:00,
2013-02-03 03:03:00,30.6,10.7,29.88,SSW,202,0.0,0.0,43,0.00,CLR,,0.00,WeatherDisplay:10.37,2013-02-03 10:03:00,
2013-02-03 03:08:00,30.6,10.7,29.87,ENE,68,0.0,0.0,43,0.00,CLR,,0.00,WeatherDisplay:10.37,2013-02-03 10:08:00,
2013-02-03 03:13:00,30.6,10.7,29.87,ENE,68,0.0,0.0,43,0.00,CLR,,0.00,WeatherDisplay:10.37,2013-02-03 10:13:00,
2013-02-03 03:18:00,30.6,10.7,29.87,East,90,0.0,0.0,43,0.00,CLR,,0.00,WeatherDisplay:10.37,2013-02-03 10:18:00,
2013-02-03 03:23:00,30.4,10.5,29.87,East,90,0.0,0.0,43,0.00,CLR,,0.00,WeatherDisplay:10.37,2013-02-03 10:23:00,
2013-02-03 03:28:00,30.4,11.0,29.87,NE,45,0.2,0.2,44,0.00,CLR,,0.00,WeatherDisplay:10.37,2013-02-03 10:28:00,
2013-02-03 03:33:00,30.2,10.9,29.87,NNE,22,0.0,0.0,44,0.00,CLR,,0.00,WeatherDisplay:10.37,2013-02-03 10:33:00,
2013-02-03 03:38:00,30.4,11.0,29.87,North,0,0.0,0.0,44,0.00,CLR,,0.00,WeatherDisplay:10.37,2013-02-03 10:38:00,
2013-02-03 03:43:00,30.4,11.0,29.87,NNE,22,0.0,0.0,44,0.00,CLR,,0.00,WeatherDisplay:10.37,2013-02-03 10:43:00,
2013-02-03 03:48:00,30.2,10.9,29.86,North,0,0.0,0.0,44,0.00,CLR,,0.00,WeatherDisplay:10.37,2013-02-03 10:48:00,
2013-02-03 03:53:00,30.4,11.0,29.86,North,0,0.5,0.5,44,0.00,CLR,,0.00,WeatherDisplay:10.37,2013-02-03 10:53:00,
2013-02-03 03:58:00,30.6,11.7,29.86,NNE,22,0.0,0.0,45,0.00,CLR,,0.00,WeatherDisplay:10.37,2013-02-03 10:58:00,
2013-02-03 04:03:00,30.6,11.7,29.86,WNW,292,0.0,0.0,45,0.00,CLR,,0.00,WeatherDisplay:10.37,2013-02-03 11:03:00,
2013-02-03 04:08:00,30.6,11.7,29.86,WNW,292,0.0,0.0,45,0.00,CLR,,0.00,WeatherDisplay:10.37,2013-02-03 11:08:00,
2013-02-03 04:13:00,30.4,12.0,29.86,WNW,292,0.0,0.0,46,0.00,CLR,,0.00,WeatherDisplay:10.37,2013-02-03 11:13:00,
2013-02-03 04:18:00,30.4,12.0,29.86,South,180,1.2,1.2,46,0.00,CLR,,0.00,WeatherDisplay:10.37,2013-02-03 11:18:00,
2013-02-03 04:23:00,30.4,12.0,29.86,South,180,0.0,0.0,46,0.00,CLR,,0.00,WeatherDisplay:10.37,2013-02-03 11:23:00,
2013-02-03 04:28:00,30.2,11.9,29.86,South,180,0.0,0.0,46,0.00,CLR,,0.00,WeatherDisplay:10.37,2013-02-03 11:28:00,
2013-02-03 04:33:00,30.2,12.4,29.86,East,90,1.2,1.2,47,0.00,CLR,,0.00,WeatherDisplay:10.37,2013-02-03 11:33:00,
2013-02-03 04:38:00,30.2,12.4,29.85,East,90,1.2,1.2,47,0.00,CLR,,0.00,WeatherDisplay:10.37,2013-02-03 11:38:00,
2013-02-03 04:44:00,30.2,12.4,29.85,East,90,0.0,0.0,47,0.00,CLR,,0.00,WeatherDisplay:10.37,2013-02-03 11:44:00,
2013-02-03 04:49:00,30.2,12.8,29.85,East,90,0.0,0.0,48,0.00,CLR,,0.00,WeatherDisplay:10.37,2013-02-03 11:49:00,
2013-02-03 04:54:00,30.2,12.4,29.84,East,90,0.0,0.0,47,0.00,CLR,,0.00,WeatherDisplay:10.37,2013-02-03 11:54:00,
2013-02-03 04:59:00,30.2,12.8,29.84,East,90,0.0,0.0,48,0.00,CLR,,0.00,WeatherDisplay:10.37,2013-02-03 11:59:00,
2013-02-03 05:04:00,30.0,12.7,29.84,ENE,68,0.0,0.0,48,0.00,CLR,,0.00,WeatherDisplay:10.37,2013-02-03 12:04:00,
2013-02-03 05:09:00,30.0,12.7,29.84,NW,315,0.0,0.0,48,0.00,CLR,,0.00,WeatherDisplay:10.37,2013-02-03 12:09:00,
2013-02-03 05:14:00,30.0,12.7,29.84,NW,315,0.0,0.0,48,0.00,CLR,,0.00,WeatherDisplay:10.37,2013-02-03 12:14:00,
2013-02-03 05:19:00,29.8,12.5,29.84,NW,315,0.0,0.0,48,0.00,CLR,,0.00,WeatherDisplay:10.37,2013-02-03 12:19:00,
2013-02-03 05:24:00,29.8,12.5,29.84,NW,315,0.0,0.0,48,0.00,CLR,,0.00,WeatherDisplay:10.37,2013-02-03 12:24:00,
2013-02-03 05:29:00,29.8,12.5,29.84,NW,315,0.0,0.0,48,0.00,CLR,,0.00,WeatherDisplay:10.37,2013-02-03 12:29:00,
2013-02-03 05:34:00,29.7,12.8,29.84,NW,315,0.0,0.0,49,0.00,CLR,,0.00,WeatherDisplay:10.37,2013-02-03 12:34:00,
2013-02-03 05:39:00,29.5,12.6,29.84,NW,315,0.0,0.0,49,0.00,CLR,,0.00,WeatherDisplay:10.37,2013-02-03 12:39:00,
2013-02-03 05:44:00,29.3,12.5,29.84,NNW,338,0.0,0.0,49,0.00,CLR,,0.00,WeatherDisplay:10.37,2013-02-03 12:44:00,
2013-02-03 05:49:00,29.1,12.3,29.84,NNE,22,0.2,0.2,49,0.00,CLR,,0.00,WeatherDisplay:10.37,2013-02-03 12:49:00,
2013-02-03 05:54:00,29.1,12.8,29.84,ENE,68,0.0,0.0,50,0.00,CLR,,0.00,WeatherDisplay:10.37,2013-02-03 12:54:00,
2013-02-03 05:59:00,29.1,12.8,29.84,ENE,68,0.0,0.0,50,0.00,CLR,,0.00,WeatherDisplay:10.37,2013-02-03 12:59:00,
2013-02-03 06:04:00,29.1,12.8,29.83,ENE,68,0.0,0.0,50,0.00,CLR,,0.00,WeatherDisplay:10.37,2013-02-03 13:04:00,
2013-02-03 06:09:00,28.9,12.6,29.84,ENE,68,0.0,0.0,50,0.00,CLR,,0.00,WeatherDisplay:10.37,2013-02-03 13:09:00,
2013-02-03 06:14:00,28.8,12.4,29.83,ENE,68,0.0,0.0,50,0.00,CLR,,0.00,WeatherDisplay:10.37,2013-02-03 13:14:00,
2013-02-03 06:19:00,28.6,12.3,29.83,ENE,68,0.0,0.0,50,0.00,CLR,,0.00,WeatherDisplay:10.37,2013-02-03 13:19:00,
2013-02-03 06:24:00,28.6,12.3,29.83,ENE,68,0.0,0.0,50,0.00,CLR,,0.00,WeatherDisplay:10.37,2013-02-03 13:24:00,
2013-02-03 06:29:00,28.4,12.6,29.83,ENE,68,0.0,0.0,51,0.00,CLR,,0.00,WeatherDisplay:10.37,2013-02-03 13:29:00,
2013-02-03 06:34:00,28.4,12.6,29.83,ENE,68,0.0,0.0,51,0.00,CLR,,0.00,WeatherDisplay:10.37,2013-02-03 13:34:00,
2013-02-03 06:39:00,28.4,12.1,29.83,ENE,68,0.0,0.5,50,0.00,CLR,,0.00,WeatherDisplay:10.37,2013-02-03 13:39:00,
2013-02-03 06:44:00,28.4,12.1,29.83,ENE,68,0.0,0.0,50,0.00,CLR,,0.00,WeatherDisplay:10.37,2013-02-03 13:44:00,
2013-02-03 06:49:00,28.4,12.6,29.82,ENE,68,0.0,0.0,51,0.00,CLR,,0.00,WeatherDisplay:10.37,2013-02-03 13:49:00,
2013-02-03 06:54:00,28.4,12.6,29.82,ENE,68,0.0,0.0,51,0.00,CLR,,0.00,WeatherDisplay:10.37,2013-02-03 13:54:00,
2013-02-03 06:59:00,28.6,13.2,29.83,ENE,68,0.0,0.0,52,0.00,CLR,,0.00,WeatherDisplay:10.37,2013-02-03 13:59:00,
2013-02-03 07:04:00,28.4,12.6,29.83,East,90,0.0,0.0,51,0.00,CLR,,0.00,WeatherDisplay:10.37,2013-02-03 14:04:00,
2013-02-03 07:09:00,28.4,12.1,29.83,East,90,0.0,0.0,50,0.00,CLR,,0.00,WeatherDisplay:10.37,2013-02-03 14:09:00,
2013-02-03 07:14:00,28.4,12.1,29.83,East,90,0.0,0.0,50,0.00,CLR,,0.00,WeatherDisplay:10.37,2013-02-03 14:14:00,
2013-02-03 07:19:00,28.2,12.4,29.82,East,90,0.0,0.0,51,0.00,CLR,,0.00,WeatherDisplay:10.37,2013-02-03 14:19:00,
2013-02-03 07:24:00,28.0,12.2,29.83,East,90,0.0,0.0,51,0.00,CLR,,0.00,WeatherDisplay:10.37,2013-02-03 14:24:00,
2013-02-03 07:29:00,28.2,12.4,29.82,East,90,0.0,0.0,51,0.00,CLR,,0.00,WeatherDisplay:10.37,2013-02-03 14:29:00,
2013-02-03 07:34:00,28.4,13.0,29.82,ENE,68,0.0,0.0,52,0.00,CLR,,0.00,WeatherDisplay:10.37,2013-02-03 14:34:00,
2013-02-03 07:39:00,28.6,13.2,29.82,ENE,68,0.0,0.0,52,0.00,CLR,,0.00,WeatherDisplay:10.37,2013-02-03 14:39:00,
2013-02-03 07:44:00,28.8,13.3,29.82,ENE,68,0.0,0.0,52,0.00,CLR,,0.00,WeatherDisplay:10.37,2013-02-03 14:44:00,
2013-02-03 07:49:00,28.9,13.5,29.82,ENE,68,0.0,0.5,52,0.00,CLR,,0.00,WeatherDisplay:10.37,2013-02-03 14:49:00,
2013-02-03 07:54:00,29.3,13.8,29.82,East,90,0.0,0.0,52,0.00,CLR,,0.00,WeatherDisplay:10.37,2013-02-03 14:54:00,
2013-02-03 07:59:00,29.8,14.3,29.82,South,180,0.2,0.2,52,0.00,CLR,,0.00,WeatherDisplay:10.37,2013-02-03 14:59:00,
2013-02-03 08:04:00,30.2,14.7,29.82,SSW,202,1.2,1.2,52,0.00,CLR,,0.00,WeatherDisplay:10.37,2013-02-03 15:04:00,
2013-02-03 08:09:00,30.9,15.3,29.82,SSE,158,0.5,0.5,52,0.00,CLR,,0.00,WeatherDisplay:10.37,2013-02-03 15:09:00,
2013-02-03 08:14:00,31.6,16.4,29.82,SW,225,1.2,1.2,53,0.00,CLR,,0.00,WeatherDisplay:10.37,2013-02-03 15:14:00,
2013-02-03 08:19:00,32.2,16.9,29.82,South,180,1.2,1.2,53,0.00,CLR,,0.00,WeatherDisplay:10.37,2013-02-03 15:19:00,
2013-02-03 08:24:00,33.1,17.3,29.82,SSW,202,1.2,1.2,52,0.00,CLR,,0.00,WeatherDisplay:10.37,2013-02-03 15:24:00,
2013-02-03 08:29:00,33.6,17.8,29.83,SSE,158,2.3,2.3,52,0.00,CLR,,0.00,WeatherDisplay:10.37,2013-02-03 15:29:00,
2013-02-03 08:34:00,34.3,18.1,29.83,SSE,158,2.3,2.3,51,0.00,CLR,,0.00,WeatherDisplay:10.37,2013-02-03 15:34:00,
2013-02-03 08:39:00,34.9,18.6,29.83,SSE,158,3.5,3.6,51,0.00,CLR,,0.00,WeatherDisplay:10.37,2013-02-03 15:39:00,
2013-02-03 08:44:00,35.6,18.8,29.83,South,180,2.9,2.9,50,0.00,CLR,,0.00,WeatherDisplay:10.37,2013-02-03 15:44:00,
2013-02-03 08:49:00,36.0,18.6,29.82,South,180,1.2,1.2,49,0.00,CLR,,0.00,WeatherDisplay:10.37,2013-02-03 15:49:00,
2013-02-03 08:54:00,36.7,19.3,29.82,SSE,158,2.3,2.3,49,0.00,CLR,,0.00,WeatherDisplay:10.37,2013-02-03 15:54:00,
2013-02-03 08:59:00,37.4,19.5,29.82,South,180,3.5,3.5,48,0.00,CLR,,0.00,WeatherDisplay:10.37,2013-02-03 15:59:00,
2013-02-03 09:04:00,37.8,19.3,29.83,SW,225,2.3,2.3,47,0.00,CLR,,0.00,WeatherDisplay:10.37,2013-02-03 16:04:00,
2013-02-03 09:09:00,38.1,19.6,29.82,SSE,158,2.4,2.4,47,0.00,CLR,,0.00,WeatherDisplay:10.37,2013-02-03 16:09:00,
2013-02-03 09:14:00,38.7,19.6,29.82,SSE,158,1.2,1.2,46,0.00,CLR,,0.00,WeatherDisplay:10.37,2013-02-03 16:14:00,
2013-02-03 09:19:00,39.2,20.1,29.82,SSE,158,1.2,1.2,46,0.00,CLR,,0.00,WeatherDisplay:10.37,2013-02-03 16:19:00,
2013-02-03 09:24:00,39.6,20.5,29.82,South,180,3.5,3.5,46,0.00,CLR,,0.00,WeatherDisplay:10.37,2013-02-03 16:24:00,
2013-02-03 09:29:00,39.9,20.8,29.82,SSE,158,0.0,0.5,46,0.00,CLR,,0.00,WeatherDisplay:10.37,2013-02-03 16:29:00,
2013-02-03 09:34:00,40.3,20.6,29.81,South,180,3.5,3.5,45,0.00,CLR,,0.00,WeatherDisplay:10.37,2013-02-03 16:34:00,
2013-02-03 09:39:00,40.8,21.1,29.81,SSW,202,2.3,2.3,45,0.00,CLR,,0.00,WeatherDisplay:10.37,2013-02-03 16:39:00,
2013-02-03 09:44:00,41.4,21.1,29.81,South,180,3.5,3.5,44,0.00,CLR,,0.00,WeatherDisplay:10.37,2013-02-03 16:44:00,
2013-02-03 09:49:00,41.9,21.0,29.81,South,180,2.3,2.3,43,0.00,CLR,,0.00,WeatherDisplay:10.37,2013-02-03 16:49:00,
2013-02-03 09:54:00,42.3,21.3,29.81,SSE,158,2.6,2.6,43,0.00,CLR,,0.00,WeatherDisplay:10.37,2013-02-03 16:54:00,
2013-02-03 09:59:00,42.6,21.1,29.81,SW,225,2.3,2.3,42,0.00,CLR,,0.00,WeatherDisplay:10.37,2013-02-03 16:59:00,
2013-02-03 10:04:00,43.2,21.6,29.81,South,180,2.9,2.9,42,0.00,CLR,,0.00,WeatherDisplay:10.37,2013-02-03 17:04:00,
2013-02-03 10:09:00,43.3,20.6,29.81,WSW,248,2.3,2.3,40,0.00,CLR,,0.00,WeatherDisplay:10.37,2013-02-03 17:09:00,
2013-02-03 10:14:00,43.7,21.5,29.81,SSE,158,1.2,1.2,41,0.00,CLR,,0.00,WeatherDisplay:10.37,2013-02-03 17:14:00,
2013-02-03 10:19:00,44.2,21.4,29.80,WSW,248,2.3,2.3,40,0.00,CLR,,0.00,WeatherDisplay:10.37,2013-02-03 17:19:00,
2013-02-03 10:24:00,44.2,21.4,29.80,SW,225,0.5,0.5,40,0.00,CLR,,0.00,WeatherDisplay:10.37,2013-02-03 17:24:00,
2013-02-03 10:29:00,44.6,21.1,29.81,SSW,202,2.3,2.3,39,0.00,CLR,,0.00,WeatherDisplay:10.37,2013-02-03 17:29:00,
2013-02-03 10:34:00,45.0,21.5,29.80,SW,225,2.3,2.3,39,0.00,CLR,,0.00,WeatherDisplay:10.37,2013-02-03 17:34:00,
2013-02-03 10:39:00,45.0,20.8,29.80,SSW,202,1.2,1.2,38,0.00,CLR,,0.00,WeatherDisplay:10.37,2013-02-03 17:39:00,
2013-02-03 10:44:00,45.1,21.0,29.80,SSW,202,1.2,1.2,38,0.00,CLR,,0.00,WeatherDisplay:10.37,2013-02-03 17:44:00,
2013-02-03 10:49:00,45.7,21.5,29.80,WNW,292,0.0,0.0,38,0.00,CLR,,0.00,WeatherDisplay:10.37,2013-02-03 17:49:00,
2013-02-03 10:54:00,45.9,21.0,29.80,SW,225,1.2,1.2,37,0.00,CLR,,0.00,WeatherDisplay:10.37,2013-02-03 17:54:00,
2013-02-03 10:59:00,46.0,21.8,29.79,SW,225,1.2,1.2,38,0.00,CLR,,0.00,WeatherDisplay:10.37,2013-02-03 17:59:00,
2013-02-03 11:04:00,46.4,21.5,29.79,ESE,112,1.2,1.2,37,0.00,CLR,,0.00,WeatherDisplay:10.37,2013-02-03 18:04:00,
2013-02-03 11:09:00,46.9,22.6,29.80,SW,225,0.0,1.6,38,0.00,CLR,,0.00,WeatherDisplay:10.37,2013-02-03 18:09:00,
2013-02-03 11:14:00,47.3,22.3,29.79,SW,225,1.6,1.6,37,0.00,CLR,,0.00,WeatherDisplay:10.37,2013-02-03 18:14:00,
2013-02-03 11:19:00,47.7,23.3,29.79,South,180,2.3,2.3,38,0.00,CLR,,0.00,WeatherDisplay:10.37,2013-02-03 18:19:00,
2013-02-03 11:24:00,48.2,23.1,29.79,ESE,112,1.2,1.2,37,0.00,CLR,,0.00,WeatherDisplay:10.37,2013-02-03 18:24:00,
2013-02-03 11:29:00,48.6,24.1,29.79,SSE,158,2.3,2.3,38,0.00,CLR,,0.00,WeatherDisplay:10.37,2013-02-03 18:29:00,
2013-02-03 11:34:00,49.1,23.9,29.78,SW,225,2.3,2.3,37,0.00,CLR,,0.00,WeatherDisplay:10.37,2013-02-03 18:34:00,
2013-02-03 11:39:00,49.6,24.4,29.78,SW,225,1.2,1.2,37,0.00,CLR,,0.00,WeatherDisplay:10.37,2013-02-03 18:39:00,
2013-02-03 11:44:00,49.5,23.6,29.78,SSW,202,1.2,1.2,36,0.00,CLR,,0.00,WeatherDisplay:10.37,2013-02-03 18:44:00,
2013-02-03 11:49:00,49.6,23.7,29.77,SW,225,2.3,2.3,36,0.00,CLR,,0.00,WeatherDisplay:10.37,2013-02-03 18:49:00,
2013-02-03 11:54:00,49.6,23.1,29.77,SSE,158,2.3,2.3,35,0.00,CLR,,0.00,WeatherDisplay:10.37,2013-02-03 18:54:00,
2013-02-03 11:59:00,49.8,22.5,29.77,SW,225,0.5,0.5,34,0.00,CLR,,0.00,WeatherDisplay:10.37,2013-02-03 18:59:00,
2013-02-03 12:04:00,50.0,22.7,29.77,WSW,248,2.4,2.4,34,0.00,CLR,,0.00,WeatherDisplay:10.37,2013-02-03 19:04:00,
2013-02-03 12:09:00,49.8,21.8,29.77,SW,225,2.4,2.4,33,0.00,CLR,,0.00,WeatherDisplay:10.37,2013-02-03 19:09:00,
2013-02-03 12:14:00,49.8,22.5,29.77,South,180,2.3,2.3,34,0.00,CLR,,0.00,WeatherDisplay:10.37,2013-02-03 19:14:00,
2013-02-03 12:19:00,50.0,22.0,29.76,West,270,2.3,2.3,33,0.00,CLR,,0.00,WeatherDisplay:10.37,2013-02-03 19:19:00,
2013-02-03 12:24:00,50.0,22.0,29.76,SW,225,1.2,1.2,33,0.00,CLR,,0.00,WeatherDisplay:10.37,2013-02-03 19:24:00,
2013-02-03 12:29:00,50.4,22.3,29.76,SSE,158,0.2,0.2,33,0.00,CLR,,0.00,WeatherDisplay:10.37,2013-02-03 19:29:00,
2013-02-03 12:34:00,50.7,22.6,29.75,South,180,2.3,2.3,33,0.00,CLR,,0.00,WeatherDisplay:10.37,2013-02-03 19:34:00,
2013-02-03 12:39:00,51.4,23.3,29.74,ENE,68,2.3,2.3,33,0.00,CLR,,0.00,WeatherDisplay:10.37,2013-02-03 19:39:00,
2013-02-03 12:44:00,51.8,22.8,29.74,SW,225,3.5,3.5,32,0.00,CLR,,0.00,WeatherDisplay:10.37,2013-02-03 19:44:00,
2013-02-03 12:49:00,51.8,22.8,29.74,SSE,158,2.4,2.4,32,0.00,CLR,,0.00,WeatherDisplay:10.37,2013-02-03 19:49:00,
2013-02-03 12:54:00,52.2,23.2,29.74,WSW,248,1.2,1.2,32,0.00,CLR,,0.00,WeatherDisplay:10.37,2013-02-03 19:54:00,
2013-02-03 12:59:00,52.2,21.6,29.74,WSW,248,2.3,0.0,30,0.00,CLR,,0.00,WeatherDisplay:10.37,2013-02-03 19:59:00,
2013-02-03 13:04:00,51.6,21.2,29.73,ENE,68,1.2,1.2,30,0.00,CLR,,0.00,WeatherDisplay:10.37,2013-02-03 20:04:00,
2013-02-03 13:09:00,51.4,21.8,29.72,SE,135,2.3,2.3,31,0.00,CLR,,0.00,WeatherDisplay:10.37,2013-02-03 20:09:00,
2013-02-03 13:14:00,52.0,23.0,29.72,SSW,202,1.8,1.8,32,0.00,CLR,,0.00,WeatherDisplay:10.37,2013-02-03 20:14:00,
2013-02-03 13:19:00,52.3,21.8,29.72,WSW,248,1.2,0.0,30,0.00,CLR,,0.00,WeatherDisplay:10.37,2013-02-03 20:19:00,
2013-02-03 13:24:00,52.2,21.6,29.71,WSW,248,1.8,1.8,30,0.00,CLR,,0.00,WeatherDisplay:10.37,2013-02-03 20:24:00,
2013-02-03 13:29:00,52.2,20.8,29.71,West,270,0.5,0.5,29,0.00,CLR,,0.00,WeatherDisplay:10.37,2013-02-03 20:29:00,
2013-02-03 13:34:00,52.2,21.6,29.71,WSW,248,2.3,2.3,30,0.00,CLR,,0.00,WeatherDisplay:10.37,2013-02-03 20:34:00,
2013-02-03 13:39:00,52.0,20.7,29.72,SW,225,2.4,2.4,29,0.00,CLR,,0.00,WeatherDisplay:10.37,2013-02-03 20:39:00,
2013-02-03 13:44:00,52.0,21.5,29.72,SW,225,2.9,2.9,30,0.00,CLR,,0.00,WeatherDisplay:10.37,2013-02-03 20:44:00,
2013-02-03 13:49:00,52.2,20.8,29.71,SW,225,2.3,2.3,29,0.00,CLR,,0.00,WeatherDisplay:10.37,2013-02-03 20:49:00,
2013-02-03 13:54:00,52.2,20.8,29.71,WSW,248,2.3,2.4,29,0.00,CLR,,0.00,WeatherDisplay:10.37,2013-02-03 20:54:00,
2013-02-03 13:59:00,52.2,20.8,29.71,WSW,248,1.2,1.2,29,0.00,CLR,,0.00,WeatherDisplay:10.37,2013-02-03 20:59:00,
2013-02-03 14:04:00,52.0,20.7,29.71,NNW,338,2.3,2.3,29,0.00,CLR,,0.00,WeatherDisplay:10.37,2013-02-03 21:04:00,
2013-02-03 14:09:00,52.0,20.7,29.70,SSW,202,1.2,1.2,29,0.00,CLR,,0.00,WeatherDisplay:10.37,2013-02-03 21:09:00,
2013-02-03 14:14:00,52.0,20.7,29.70,SW,225,1.2,1.2,29,0.00,CLR,,0.00,WeatherDisplay:10.37,2013-02-03 21:14:00,
2013-02-03 14:19:00,51.6,20.4,29.69,SW,225,2.3,2.3,29,0.00,CLR,,0.00,WeatherDisplay:10.37,2013-02-03 21:19:00,
2013-02-03 14:24:00,51.8,20.5,29.69,SE,135,1.2,1.2,29,0.00,CLR,,0.00,WeatherDisplay:10.37,2013-02-03 21:24:00,
2013-02-03 14:29:00,51.8,20.5,29.69,WSW,248,1.6,1.6,29,0.00,CLR,,0.00,WeatherDisplay:10.37,2013-02-03 21:29:00,
2013-02-03 14:34:00,52.2,20.8,29.69,SSW,202,1.4,1.4,29,0.00,CLR,,0.00,WeatherDisplay:10.37,2013-02-03 21:34:00,
2013-02-03 14:39:00,52.3,21.0,29.68,SSE,158,0.5,0.5,29,0.00,CLR,,0.00,WeatherDisplay:10.37,2013-02-03 21:39:00,
2013-02-03 14:44:00,52.7,21.3,29.68,East,90,2.3,2.3,29,0.00,CLR,,0.00,WeatherDisplay:10.37,2013-02-03 21:44:00,
2013-02-03 14:49:00,53.1,21.6,29.68,WSW,248,0.0,0.0,29,0.00,CLR,,0.00,WeatherDisplay:10.37,2013-02-03 21:49:00,
2013-02-03 14:54:00,53.1,21.6,29.68,WSW,248,1.2,1.2,29,0.00,CLR,,0.00,WeatherDisplay:10.37,2013-02-03 21:54:00,
2013-02-03 14:59:00,52.7,20.5,29.68,WSW,248,0.0,0.0,28,0.00,CLR,,0.00,WeatherDisplay:10.37,2013-02-03 21:59:00,
2013-02-03 15:04:00,52.7,20.5,29.68,SW,225,2.3,2.3,28,0.00,CLR,,0.00,WeatherDisplay:10.37,2013-02-03 22:04:00,
2013-02-03 15:09:00,52.5,20.3,29.68,SW,225,4.6,4.6,28,0.00,CLR,,0.00,WeatherDisplay:10.37,2013-02-03 22:09:00,
2013-02-03 15:14:00,52.3,21.0,29.68,WSW,248,1.2,0.0,29,0.00,CLR,,0.00,WeatherDisplay:10.37,2013-02-03 22:14:00,
2013-02-03 15:19:00,52.3,20.2,29.68,WSW,248,2.3,0.0,28,0.00,CLR,,0.00,WeatherDisplay:10.37,2013-02-03 22:19:00,
2013-02-03 15:24:00,52.2,20.0,29.68,WSW,248,1.2,1.2,28,0.00,CLR,,0.00,WeatherDisplay:10.37,2013-02-03 22:24:00,
2013-02-03 15:29:00,52.0,19.8,29.67,WSW,248,0.0,0.0,28,0.00,CLR,,0.00,WeatherDisplay:10.37,2013-02-03 22:29:00,
2013-02-03 15:34:00,52.0,19.8,29.67,South,180,1.2,1.2,28,0.00,CLR,,0.00,WeatherDisplay:10.37,2013-02-03 22:34:00,
2013-02-03 15:39:00,52.2,20.8,29.67,SE,135,0.0,0.5,29,0.00,CLR,,0.00,WeatherDisplay:10.37,2013-02-03 22:39:00,
2013-02-03 15:44:00,52.3,21.0,29.67,South,180,1.4,1.4,29,0.00,CLR,,0.00,WeatherDisplay:10.37,2013-02-03 22:44:00,
2013-02-03 15:49:00,52.7,20.5,29.67,West,270,2.3,2.3,28,0.00,CLR,,0.00,WeatherDisplay:10.37,2013-02-03 22:49:00,
2013-02-03 15:54:00,52.9,20.6,29.67,WSW,248,2.3,2.3,28,0.00,CLR,,0.00,WeatherDisplay:10.37,2013-02-03 22:54:00,
2013-02-03 15:59:00,52.9,20.6,29.67,SSW,202,0.0,0.2,28,0.00,CLR,,0.00,WeatherDisplay:10.37,2013-02-03 22:59:00,
2013-02-03 16:04:00,53.1,20.8,29.66,South,180,1.2,1.2,28,0.00,CLR,,0.00,WeatherDisplay:10.37,2013-02-03 23:04:00,
2013-02-03 16:09:00,53.1,20.8,29.66,SW,225,1.2,1.2,28,0.00,CLR,,0.00,WeatherDisplay:10.37,2013-02-03 23:09:00,
2013-02-03 16:14:00,52.7,19.6,29.66,North,0,0.7,0.7,27,0.00,CLR,,0.00,WeatherDisplay:10.37,2013-02-03 23:14:00,
2013-02-03 16:19:00,52.3,19.3,29.66,WSW,248,1.2,1.2,27,0.00,CLR,,0.00,WeatherDisplay:10.37,2013-02-03 23:19:00,
2013-02-03 16:24:00,52.2,20.0,29.66,WSW,248,0.0,0.0,28,0.00,CLR,,0.00,WeatherDisplay:10.37,2013-02-03 23:24:00,
2013-02-03 16:29:00,51.8,18.8,29.66,West,270,1.2,1.2,27,0.00,CLR,,0.00,WeatherDisplay:10.37,2013-02-03 23:29:00,
2013-02-03 16:34:00,51.4,19.4,29.66,WSW,248,2.3,2.3,28,0.00,CLR,,0.00,WeatherDisplay:10.37,2013-02-03 23:34:00,
2013-02-03 16:39:00,51.3,18.4,29.66,West,270,2.3,2.3,27,0.00,CLR,,0.00,WeatherDisplay:10.37,2013-02-03 23:39:00,
2013-02-03 16:44:00,50.7,18.8,29.66,WSW,248,1.2,0.0,28,0.00,CLR,,0.00,WeatherDisplay:10.37,2013-02-03 23:44:00,
2013-02-03 16:49:00,50.7,18.8,29.66,NW,315,1.2,1.2,28,0.00,CLR,,0.00,WeatherDisplay:10.37,2013-02-03 23:49:00,
2013-02-03 16:54:00,50.4,18.4,29.66,WNW,292,1.4,1.4,28,0.00,CLR,,0.00,WeatherDisplay:10.37,2013-02-03 23:54:00,
2013-02-03 16:59:00,50.2,18.3,29.66,NNW,338,1.2,1.2,28,0.00,CLR,,0.00,WeatherDisplay:10.37,2013-02-03 23:59:00,
2013-02-03 17:04:00,49.8,18.8,29.66,NW,315,1.2,0.0,29,0.00,CLR,,0.00,WeatherDisplay:10.37,2013-02-04 00:04:00,
2013-02-03 17:09:00,49.8,18.8,29.65,NW,315,0.0,0.0,29,0.00,CLR,,0.00,WeatherDisplay:10.37,2013-02-04 00:09:00,
2013-02-03 17:14:00,49.6,18.6,29.65,NW,315,0.0,0.0,29,0.00,CLR,,0.00,WeatherDisplay:10.37,2013-02-04 00:14:00,
2013-02-03 17:19:00,49.3,18.3,29.65,NW,315,0.9,0.9,29,0.00,CLR,,0.00,WeatherDisplay:10.37,2013-02-04 00:19:00,
2013-02-03 17:24:00,49.1,19.0,29.65,WNW,292,0.0,0.5,30,0.00,CLR,,0.00,WeatherDisplay:10.37,2013-02-04 00:24:00,
2013-02-03 17:29:00,48.7,18.6,29.65,WNW,292,1.2,1.2,30,0.00,CLR,,0.00,WeatherDisplay:10.37,2013-02-04 00:29:00,
2013-02-03 17:34:00,48.6,18.5,29.65,NW,315,1.2,1.2,30,0.00,CLR,,0.00,WeatherDisplay:10.37,2013-02-04 00:34:00,
2013-02-03 17:39:00,48.6,19.3,29.65,NW,315,2.3,2.3,31,0.00,CLR,,0.00,WeatherDisplay:10.37,2013-02-04 00:39:00,
2013-02-03 17:44:00,48.4,19.1,29.65,NNW,338,1.2,1.2,31,0.00,CLR,,0.00,WeatherDisplay:10.37,2013-02-04 00:44:00,
2013-02-03 17:49:00,48.2,18.9,29.65,NNW,338,1.2,1.2,31,0.00,CLR,,0.00,WeatherDisplay:10.37,2013-02-04 00:49:00,
2013-02-03 17:54:00,48.0,18.8,29.65,NNW,338,1.2,1.2,31,0.00,CLR,,0.00,WeatherDisplay:10.37,2013-02-04 00:54:00,
2013-02-03 17:59:00,47.8,18.6,29.65,NW,315,1.2,1.2,31,0.00,CLR,,0.00,WeatherDisplay:10.37,2013-02-04 00:59:00,
2013-02-03 18:04:00,47.8,19.4,29.65,NNW,338,0.7,0.7,32,0.00,CLR,,0.00,WeatherDisplay:10.37,2013-02-04 01:04:00,
2013-02-03 18:09:00,47.7,19.2,29.66,NW,315,1.8,1.8,32,0.00,CLR,,0.00,WeatherDisplay:10.37,2013-02-04 01:09:00,
2013-02-03 18:14:00,47.7,19.2,29.66,WNW,292,1.2,1.2,32,0.00,CLR,,0.00,WeatherDisplay:10.37,2013-02-04 01:14:00,
2013-02-03 18:19:00,47.5,19.8,29.66,NNW,338,0.7,0.7,33,0.00,CLR,,0.00,WeatherDisplay:10.37,2013-02-04 01:19:00,
2013-02-03 18:24:00,47.5,19.8,29.66,NW,315,1.2,1.2,33,0.00,CLR,,0.00,WeatherDisplay:10.37,2013-02-04 01:24:00,
2013-02-03 18:29:00,47.3,19.6,29.66,NW,315,1.2,1.2,33,0.00,CLR,,0.00,WeatherDisplay:10.37,2013-02-04 01:29:00,
2013-02-03 18:34:00,47.1,19.5,29.66,NNW,338,2.3,2.3,33,0.00,CLR,,0.00,WeatherDisplay:10.37,2013-02-04 01:34:00,
2013-02-03 18:39:00,47.3,19.6,29.66,NW,315,2.4,2.4,33,0.00,CLR,,0.00,WeatherDisplay:10.37,2013-02-04 01:39:00,
2013-02-03 18:44:00,47.3,20.3,29.67,NW,315,4.9,4.9,34,0.00,CLR,,0.00,WeatherDisplay:10.37,2013-02-04 01:44:00,
2013-02-03 18:49:00,47.3,22.3,29.67,NW,315,2.3,2.3,37,0.00,CLR,,0.00,WeatherDisplay:10.37,2013-02-04 01:49:00,
2013-02-03 18:54:00,47.1,23.4,29.67,WNW,292,4.6,4.6,39,0.00,CLR,,0.00,WeatherDisplay:10.37,2013-02-04 01:54:00,
2013-02-03 18:59:00,47.1,25.2,29.67,NW,315,3.5,3.5,42,0.00,CLR,,0.00,WeatherDisplay:10.37,2013-02-04 01:59:00,
2013-02-03 19:04:00,46.9,25.6,29.66,NW,315,2.3,2.3,43,0.00,CLR,,0.00,WeatherDisplay:10.37,2013-02-04 02:04:00,
2013-02-03 19:09:00,46.8,27.0,29.67,NW,315,4.5,4.5,46,0.00,CLR,,0.00,WeatherDisplay:10.37,2013-02-04 02:09:00,
2013-02-03 19:14:00,46.8,27.0,29.67,NW,315,3.3,3.3,46,0.00,CLR,,0.00,WeatherDisplay:10.37,2013-02-04 02:14:00,
2013-02-03 19:19:00,46.6,27.4,29.67,WNW,292,4.6,4.6,47,0.00,CLR,,0.00,WeatherDisplay:10.37,2013-02-04 02:19:00,
2013-02-03 19:24:00,46.4,27.2,29.67,NNW,338,2.3,2.3,47,0.00,CLR,,0.00,WeatherDisplay:10.37,2013-02-04 02:24:00,
2013-02-03 19:29:00,46.2,27.1,29.67,NW,315,2.4,2.4,47,0.00,CLR,,0.00,WeatherDisplay:10.37,2013-02-04 02:29:00,
2013-02-03 19:34:00,46.0,26.9,29.67,NW,315,0.2,0.2,47,0.00,CLR,,0.00,WeatherDisplay:10.37,2013-02-04 02:34:00,
2013-02-03 19:39:00,45.7,27.1,29.67,NW,315,1.2,0.0,48,0.00,CLR,,0.00,WeatherDisplay:10.37,2013-02-04 02:39:00,
2013-02-03 19:44:00,45.7,27.1,29.67,NNW,338,2.3,2.3,48,0.00,CLR,,0.00,WeatherDisplay:10.37,2013-02-04 02:44:00,
2013-02-03 19:49:00,45.5,26.9,29.67,NNW,338,0.0,0.5,48,0.00,CLR,,0.00,WeatherDisplay:10.37,2013-02-04 02:49:00,
2013-02-03 19:54:00,45.3,27.3,29.67,NW,315,0.5,0.5,49,0.00,CLR,,0.00,WeatherDisplay:10.37,2013-02-04 02:54:00,
2013-02-03 19:59:00,45.1,26.6,29.67,NW,315,0.5,0.5,48,0.00,CLR,,0.00,WeatherDisplay:10.37,2013-02-04 02:59:00,
2013-02-03 20:04:00,45.0,26.9,29.67,NW,315,0.2,0.2,49,0.00,CLR,,0.00,WeatherDisplay:10.37,2013-02-04 03:04:00,
2013-02-03 20:09:00,45.0,26.9,29.67,NW,315,0.0,0.0,49,0.00,CLR,,0.00,WeatherDisplay:10.37,2013-02-04 03:09:00,
2013-02-03 20:14:00,44.8,26.8,29.67,WNW,292,0.0,0.0,49,0.00,CLR,,0.00,WeatherDisplay:10.37,2013-02-04 03:14:00,
2013-02-03 20:19:00,44.6,26.6,29.67,WNW,292,0.0,0.0,49,0.00,CLR,,0.00,WeatherDisplay:10.37,2013-02-04 03:19:00,
2013-02-03 20:24:00,44.6,27.1,29.67,NW,315,1.2,1.2,50,0.00,CLR,,0.00,WeatherDisplay:10.37,2013-02-04 03:24:00,
2013-02-03 20:29:00,44.6,27.6,29.67,WNW,292,0.5,0.5,51,0.00,CLR,,0.00,WeatherDisplay:10.37,2013-02-04 03:29:00,
2013-02-03 20:34:00,44.6,27.6,29.67,NW,315,1.2,1.2,51,0.00,CLR,,0.00,WeatherDisplay:10.37,2013-02-04 03:34:00,
2013-02-03 20:39:00,44.6,27.6,29.67,WNW,292,0.0,0.0,51,0.00,CLR,,0.00,WeatherDisplay:10.37,2013-02-04 03:39:00,
2013-02-03 20:44:00,44.6,27.1,29.67,North,0,0.9,0.9,50,0.00,CLR,,0.00,WeatherDisplay:10.37,2013-02-04 03:44:00,
2013-02-03 20:49:00,44.6,27.6,29.67,West,270,2.3,2.3,51,0.00,CLR,,0.00,WeatherDisplay:10.37,2013-02-04 03:49:00,
2013-02-03 20:54:00,44.6,27.1,29.68,WNW,292,2.3,2.3,50,0.00,CLR,,0.00,WeatherDisplay:10.37,2013-02-04 03:54:00,
2013-02-03 20:59:00,44.6,27.1,29.68,NW,315,3.6,3.6,50,0.00,CLR,,0.00,WeatherDisplay:10.37,2013-02-04 03:59:00,
2013-02-03 21:04:00,44.8,27.3,29.68,NW,315,1.6,1.6,50,0.00,CLR,,0.00,WeatherDisplay:10.37,2013-02-04 04:04:00,
2013-02-03 21:09:00,44.8,27.3,29.68,NNW,338,2.3,2.3,50,0.00,CLR,,0.00,WeatherDisplay:10.37,2013-02-04 04:09:00,
2013-02-03 21:14:00,45.0,27.4,29.68,North,0,2.0,2.0,50,0.00,CLR,,0.00,WeatherDisplay:10.37,2013-02-04 04:14:00,
2013-02-03 21:19:00,45.0,27.4,29.68,NNW,338,2.3,2.3,50,0.00,CLR,,0.00,WeatherDisplay:10.37,2013-02-04 04:19:00,
2013-02-03 21:24:00,45.0,26.9,29.68,WNW,292,1.8,1.8,49,0.00,CLR,,0.00,WeatherDisplay:10.37,2013-02-04 04:24:00,
2013-02-03 21:29:00,45.0,26.9,29.68,NNW,338,3.5,3.5,49,0.00,CLR,,0.00,WeatherDisplay:10.37,2013-02-04 04:29:00,
2013-02-03 21:34:00,45.0,26.9,29.68,North,0,1.2,1.2,49,0.00,CLR,,0.00,WeatherDisplay:10.37,2013-02-04 04:34:00,
2013-02-03 21:39:00,45.0,26.9,29.68,NNW,338,2.3,2.3,49,0.00,CLR,,0.00,WeatherDisplay:10.37,2013-02-04 04:39:00,
2013-02-03 21:44:00,45.0,26.9,29.68,NW,315,3.5,3.5,49,0.00,CLR,,0.00,WeatherDisplay:10.37,2013-02-04 04:44:00,
2013-02-03 21:49:00,44.8,26.8,29.68,WNW,292,3.1,3.1,49,0.00,CLR,,0.00,WeatherDisplay:10.37,2013-02-04 04:49:00,
2013-02-03 21:54:00,44.8,26.8,29.68,WNW,292,2.3,2.3,49,0.00,CLR,,0.00,WeatherDisplay:10.37,2013-02-04 04:54:00,
2013-02-03 21:59:00,44.8,26.8,29.68,NW,315,0.5,0.5,49,0.00,CLR,,0.00,WeatherDisplay:10.37,2013-02-04 04:59:00,
2013-02-03 22:02:00,44.6,26.6,29.68,NNW,338,0.0,0.0,49,0.00,CLR,,0.00,WeatherDisplay:10.37,2013-02-04 05:02:00,
2013-02-03 22:03:00,44.6,26.6,29.68,NNW,338,0.0,0.0,49,0.00,CLR,,0.00,WeatherDisplay:10.37,2013-02-04 05:03:00,
2013-02-03 22:08:00,44.6,26.6,29.68,NNW,338,1.2,1.2,49,0.00,CLR,,0.00,WeatherDisplay:10.37,2013-02-04 05:08:00,
2013-02-03 22:13:00,44.4,26.4,29.68,NNW,338,0.0,0.0,49,0.00,CLR,,0.00,WeatherDisplay:10.37,2013-02-04 05:13:00,
2013-02-03 22:18:00,44.4,26.4,29.68,NW,315,1.2,1.2,49,0.00,CLR,,0.00,WeatherDisplay:10.37,2013-02-04 05:18:00,
2013-02-03 22:23:00,44.2,26.3,29.68,NW,315,1.2,0.0,49,0.00,CLR,,0.00,WeatherDisplay:10.37,2013-02-04 05:23:00,
2013-02-03 22:28:00,44.2,26.3,29.68,NNW,338,0.2,0.2,49,0.00,CLR,,0.00,WeatherDisplay:10.37,2013-02-04 05:28:00,
2013-02-03 22:33:00,44.2,26.3,29.68,NNW,338,0.0,0.0,49,0.00,CLR,,0.00,WeatherDisplay:10.37,2013-02-04 05:33:00,
2013-02-03 22:38:00,44.1,26.1,29.68,NW,315,0.0,0.2,49,0.00,CLR,,0.00,WeatherDisplay:10.37,2013-02-04 05:38:00,
2013-02-03 22:43:00,44.1,26.6,29.68,NW,315,0.5,0.5,50,0.00,CLR,,0.00,WeatherDisplay:10.37,2013-02-04 05:43:00,
2013-02-03 22:48:00,44.1,26.6,29.68,NW,315,2.3,2.3,50,0.00,CLR,,0.00,WeatherDisplay:10.37,2013-02-04 05:48:00,
2013-02-03 22:53:00,43.9,26.4,29.68,North,0,1.2,1.2,50,0.00,CLR,,0.00,WeatherDisplay:10.37,2013-02-04 05:53:00,
2013-02-03 22:58:00,43.9,26.4,29.68,NW,315,2.4,2.4,50,0.00,CLR,,0.00,WeatherDisplay:10.37,2013-02-04 05:58:00,
2013-02-03 23:03:00,43.9,25.9,29.67,NW,315,0.2,0.2,49,0.00,CLR,,0.00,WeatherDisplay:10.37,2013-02-04 06:03:00,
2013-02-03 23:08:00,43.9,25.9,29.68,NW,315,1.2,1.2,49,0.00,CLR,,0.00,WeatherDisplay:10.37,2013-02-04 06:08:00,
2013-02-03 23:13:00,43.7,26.3,29.67,NNW,338,2.4,2.4,50,0.00,CLR,,0.00,WeatherDisplay:10.37,2013-02-04 06:13:00,
2013-02-03 23:18:00,43.7,26.3,29.67,NW,315,1.2,1.2,50,0.00,CLR,,0.00,WeatherDisplay:10.37,2013-02-04 06:18:00,
2013-02-03 23:23:00,43.7,26.3,29.67,NW,315,1.2,1.2,50,0.00,CLR,,0.00,WeatherDisplay:10.37,2013-02-04 06:23:00,
2013-02-03 23:28:00,43.7,26.3,29.67,NNW,338,1.2,1.2,50,0.00,CLR,,0.00,WeatherDisplay:10.37,2013-02-04 06:28:00,
2013-02-03 23:33:00,43.7,26.3,29.67,NNW,338,3.5,3.5,50,0.00,CLR,,0.00,WeatherDisplay:10.37,2013-02-04 06:33:00,
2013-02-03 23:38:00,43.7,26.3,29.67,NNW,338,3.5,3.5,50,0.00,CLR,,0.00,WeatherDisplay:10.37,2013-02-04 06:38:00,
2013-02-03 23:43:00,43.5,26.1,29.67,NNW,338,2.3,2.3,50,0.00,CLR,,0.00,WeatherDisplay:10.37,2013-02-04 06:43:00,
2013-02-03 23:48:00,43.5,26.1,29.66,NW,315,2.3,2.3,50,0.00,CLR,,0.00,WeatherDisplay:10.37,2013-02-04 06:48:00,
2013-02-03 23:53:00,43.5,26.1,29.67,NNW,338,1.2,1.2,50,0.00,CLR,,0.00,WeatherDisplay:10.37,2013-02-04 06:53:00,
2013-02-03 23:58:00,43.3,25.9,29.66,NNW,338,3.8,3.8,50,0.00,CLR,,0.00,WeatherDisplay:10.37,2013-02-04 06:58:00,